New River MCAS, NC

9:33 PM EST on November 19, 2017 (GMT -0500)
New River Marine Corps Air Station

Weather History for KNCA - September, 2012

Change the Weather History Date:

Saturday, September 1, 2012

  Actual Average Record
Temperature  
Mean Temperature 84 °F -  
Max Temperature 95 °F 82 °F 95 °F (2012)
Min Temperature 73 °F 67 °F 61 °F (1999)
Cooling Degree Days 19    
Growing Degree Days 34 (Base 50)    
Moisture  
Dew Point 73 °F    
Average Humidity 79    
Maximum Humidity 96    
Minimum Humidity 46    
Precipitation  
Precipitation 0.00 in - - ()
Sea Level Pressure  
Sea Level Pressure 30.09 in    
Wind  
Wind Speed 6 mph (WSW)    
Max Wind Speed 8 mph    
Max Gust Speed -    
Visibility 10 miles    
Events Thunderstorm    
Averages and records for this station are not official NWS values.
T = Trace of Precipitation, MM = Missing Value Source: NWS Daily Summary

Daily Weather History Graph

Daily Weather History Graph

Search for Another Location

Airport or City:

Trip Planner

Search our weather history database for the weather conditions in past years. The results will help you decide how hot, cold, wet, or windy it might be!

Date:

Astronomy

Sep. 01, 2012 Rise Set
Actual Time 6:43 AM EDT 7:35 PM EDT
Civil Twilight 6:17 AM EDT 8:01 PM EDT
Nautical Twilight 5:46 AM EDT 8:31 PM EDT
Astronomical Twilight 5:15 AM EDT 9:02 PM EDT
Moon 7:57 PM EDT (9/1) 7:43 AM EDT (9/1)
Length of Visible Light 13h 43m
Length of Day
12h 52m
Full, 99% of the Moon is Illuminated
Sep 1
Full
Sep 8
Last Quarter
Sep 15
New
Sep 22
First Quarter
Sep 29
Full

Hourly Weather History & Observations

Time (EDT) Temp. Heat Index Dew Point Humidity Pressure Visibility Wind Dir Wind Speed Gust Speed Precip Events Conditions
12:56 AM 75.9 °F - 73.0 °F 91% 30.15 in 10.0 mi WSW 5.8 mph - N/A   Clear
1:56 AM 75.9 °F - 72.0 °F 87% 30.13 in 10.0 mi WSW 5.8 mph - N/A   Clear
2:56 AM 75.0 °F - 72.0 °F 90% 30.12 in 10.0 mi WSW 5.8 mph - N/A   Clear
3:56 AM 73.9 °F - 72.0 °F 93% 30.12 in 10.0 mi WSW 5.8 mph - N/A   Clear
4:56 AM 73.9 °F - 72.0 °F 93% 30.11 in 10.0 mi WSW 5.8 mph - N/A   Scattered Clouds
5:56 AM 73.9 °F - 72.0 °F 93% 30.12 in 10.0 mi WSW 4.6 mph - N/A   Partly Cloudy
6:56 AM 73.0 °F - 72.0 °F 96% 30.12 in 8.0 mi WSW 5.8 mph - N/A   Clear
7:56 AM 73.9 °F - 72.0 °F 93% 30.13 in 8.0 mi WSW 6.9 mph - N/A   Clear
8:12 AM 75.2 °F - 73.4 °F 94% 30.12 in 9.0 mi West 6.9 mph - N/A   Scattered Clouds
8:24 AM 75.2 °F - 73.4 °F 94% 30.12 in 9.0 mi West 8.1 mph - N/A   Mostly Cloudy
8:56 AM 77.0 °F - 73.0 °F 88% 30.13 in 10.0 mi WSW 8.1 mph - N/A   Mostly Cloudy
9:28 AM 78.8 °F - 73.4 °F 83% 30.12 in 10.0 mi West 5.8 mph - N/A   Scattered Clouds
9:56 AM 81.0 °F 86.2 °F 73.9 °F 79% 30.13 in 10.0 mi West 6.9 mph - N/A   Clear
10:26 AM 84.2 °F 90.9 °F 73.4 °F 70% 30.12 in 1.5 mi West 6.9 mph - N/A   Haze
10:34 AM 84.2 °F 90.9 °F 73.4 °F 70% 30.12 in 10.0 mi West 5.8 mph - N/A   Clear
10:56 AM 86.0 °F 95.1 °F 75.0 °F 70% 30.13 in 10.0 mi West 6.9 mph - N/A   Clear
11:56 AM 89.1 °F 99.1 °F 75.0 °F 63% 30.11 in 10.0 mi Calm Calm - N/A   Clear
12:56 PM 91.0 °F 101.6 °F 75.0 °F 59% 30.10 in 10.0 mi West 3.5 mph - N/A   Clear
1:56 PM 93.0 °F 103.2 °F 73.9 °F 54% 30.08 in 10.0 mi NNW 5.8 mph - N/A   Mostly Cloudy
2:56 PM 93.9 °F 103.4 °F 73.0 °F 51% 30.06 in 10.0 mi WNW 8.1 mph - N/A   Partly Cloudy
3:56 PM 93.0 °F 100.7 °F 72.0 °F 50% 30.03 in 10.0 mi NW 5.8 mph - N/A   Partly Cloudy
4:56 PM 95.0 °F 102.5 °F 71.1 °F 46% 30.02 in 10.0 mi ENE 6.9 mph - N/A   Clear
5:56 PM 86.0 °F 96.9 °F 77.0 °F 74% 30.03 in 10.0 mi SSE 5.8 mph - N/A   Clear
6:18 PM 84.2 °F 96.1 °F 78.8 °F 84% 30.01 in 10.0 mi South 4.6 mph - N/A Thunderstorm Thunderstorm
6:33 PM 84.2 °F 96.1 °F 78.8 °F 84% 30.02 in 10.0 mi SSW 6.9 mph - N/A   Clear
6:56 PM 84.0 °F 92.6 °F 75.9 °F 76% 30.03 in 10.0 mi WSW 6.9 mph - N/A   Clear
7:56 PM 79.0 °F - 71.1 °F 77% 30.04 in 10.0 mi WSW 8.1 mph - N/A   Clear
8:56 PM 77.0 °F - 70.0 °F 79% 30.05 in 10.0 mi WNW 4.6 mph - N/A   Clear
9:56 PM 77.0 °F - 70.0 °F 79% 30.06 in 10.0 mi NW 4.6 mph - N/A   Clear
10:56 PM 75.9 °F - 71.1 °F 85% 30.07 in 10.0 mi West 4.6 mph - N/A   Clear
11:56 PM 75.0 °F - 72.0 °F 90% 30.06 in 10.0 mi SW 3.5 mph - N/A   Scattered Clouds